When you browse on this site, cookies collect data to enhance your experience and personalize the content and advertising you see.
Visit our Privacy Policy to learn more. By continuing to use the site, you agree to this use of cookies and data.
  • In Hungary
  • List of Countries
  • For 7 days
  • Water Temperature
  • Satellite Maps
  • Weather Map
  • News
  • Weather Widgets
  • user-avatar
    Login

    Hourly Weather Dunakeszi

    Today, 27 June, Thursday

    Time Temperature Precipitation Wind Pressure Humidity
    00:00 +26°C° 0 mm 1 mps 754 mmHg 73%
    01:00 +26°C° 0 mm 1 mps 754 mmHg 76%
    02:00 +25°C° 0 mm 1 mps 754 mmHg 77%
    03:00 +25°C° 0 mm 1 mps 753 mmHg 78%
    04:00 +25°C° 0 mm 1 mps 753 mmHg 79%
    05:00 +26°C° 0 mm 1 mps 753 mmHg 75%
    06:00 +27°C° 0 mm 2 mps 753 mmHg 72%
    07:00 +28°C° 0 mm 2 mps 753 mmHg 68%
    08:00 +30°C° 0.2 mm 2 mps 752 mmHg 65%
    09:00 +31°C° 0.2 mm 2 mps 752 mmHg 63%
    10:00 +34°C° 0.2 mm 3 mps 752 mmHg 60%
    11:00 +34°C° 0.2 mm 3 mps 751 mmHg 59%
    12:00 +35°C° 0.2 mm 4 mps 751 mmHg 57%
    13:00 +35°C° 0.2 mm 5 mps 751 mmHg 56%
    14:00 +35°C° 0 mm 5 mps 750 mmHg 56%
    15:00 +35°C° 0 mm 6 mps 750 mmHg 57%
    16:00 +34°C° 0 mm 6 mps 750 mmHg 57%
    17:00 +32°C° 0 mm 5 mps 750 mmHg 61%
    18:00 +30°C° 0 mm 5 mps 750 mmHg 65%
    19:00 +28°C° 0 mm 4 mps 750 mmHg 69%
    20:00 +26°C° 0 mm 4 mps 751 mmHg 63%
    21:00 +25°C° 0 mm 4 mps 751 mmHg 57%
    22:00 +23°C° 0 mm 4 mps 752 mmHg 51%
    23:00 +21°C° 0 mm 3 mps 752 mmHg 54%

    Tomorrow, 28 June, Friday

    Time Temperature Precipitation Wind Pressure Humidity
    00:00 +20°C° 0 mm 3 mps 752 mmHg 58%
    01:00 +19°C° 0 mm 2 mps 753 mmHg 61%
    02:00 +18°C° 0 mm 2 mps 752 mmHg 63%
    03:00 +18°C° 0 mm 2 mps 752 mmHg 66%
    04:00 +17°C° 0 mm 2 mps 752 mmHg 68%
    05:00 +18°C° 0 mm 2 mps 753 mmHg 66%
    06:00 +19°C° 0 mm 3 mps 753 mmHg 65%
    07:00 +20°C° 0 mm 3 mps 753 mmHg 63%
    08:00 +21°C° 0 mm 3 mps 753 mmHg 59%
    09:00 +24°C° 0 mm 3 mps 754 mmHg 55%
    10:00 +25°C° 0 mm 3 mps 754 mmHg 51%
    11:00 +26°C° 0 mm 3 mps 754 mmHg 49%
    12:00 +26°C° 0 mm 3 mps 753 mmHg 47%
    13:00 +27°C° 0 mm 2 mps 753 mmHg 45%
    14:00 +27°C° 0 mm 2 mps 753 mmHg 46%
    15:00 +27°C° 0 mm 3 mps 753 mmHg 47%
    16:00 +27°C° 0 mm 3 mps 753 mmHg 49%
    17:00 +26°C° 0 mm 2 mps 753 mmHg 54%
    18:00 +25°C° 0 mm 2 mps 753 mmHg 59%
    19:00 +24°C° 0 mm 2 mps 753 mmHg 65%
    20:00 +23°C° 0 mm 2 mps 754 mmHg 66%
    21:00 +21°C° 0 mm 2 mps 754 mmHg 67%
    22:00 +20°C° 0 mm 2 mps 754 mmHg 68%
    23:00 +20°C° 0 mm 1 mps 754 mmHg 69%

    Day after tomorrow, 29 June, Saturday

    Time Temperature Precipitation Wind Pressure Humidity
    00:00 +20°C° 0 mm 1 mps 754 mmHg 71%
    01:00 +19°C° 0 mm 1 mps 754 mmHg 72%
    02:00 +19°C° 0 mm 1 mps 754 mmHg 75%
    03:00 +18°C° 0 mm 1 mps 754 mmHg 77%
    04:00 +18°C° 0 mm 1 mps 754 mmHg 79%
    05:00 +19°C° 0 mm 1 mps 754 mmHg 76%
    06:00 +20°C° 0 mm 1 mps 754 mmHg 73%
    07:00 +22°C° 0 mm 1 mps 755 mmHg 69%
    08:00 +23°C° 0 mm 1 mps 755 mmHg 65%
    09:00 +24°C° 0 mm 2 mps 755 mmHg 61%
    10:00 +25°C° 0 mm 2 mps 755 mmHg 56%
    11:00 +26°C° 0 mm 2 mps 755 mmHg 53%
    12:00 +27°C° 0 mm 2 mps 755 mmHg 50%
    13:00 +28°C° 0 mm 2 mps 755 mmHg 47%
    14:00 +28°C° 0 mm 2 mps 754 mmHg 47%
    15:00 +28°C° 0 mm 2 mps 754 mmHg 48%
    16:00 +27°C° 0 mm 1 mps 754 mmHg 48%
    17:00 +26°C° 0 mm 1 mps 754 mmHg 53%
    18:00 +25°C° 0 mm 1 mps 754 mmHg 58%
    19:00 +24°C° 0 mm 1 mps 754 mmHg 63%
    20:00 +23°C° 0 mm 1 mps 754 mmHg 65%
    21:00 +21°C° 0 mm 2 mps 754 mmHg 67%
    22:00 +20°C° 0 mm 2 mps 755 mmHg 69%
    23:00 +19°C° 0 mm 2 mps 755 mmHg 69%

    30 June, Sunday

    Time Temperature Precipitation Wind Pressure Humidity
    00:00 +19°C° 0 mm 2 mps 755 mmHg 68%
    01:00 +19°C° 0 mm 1 mps 755 mmHg 68%
    02:00 +19°C° 0 mm 1 mps 755 mmHg 67%
    03:00 +19°C° 0 mm 1 mps 755 mmHg 67%
    04:00 +18°C° 0 mm 1 mps 755 mmHg 67%
    05:00 +20°C° 0 mm 1 mps 755 mmHg 64%
    06:00 +21°C° 0 mm 1 mps 755 mmHg 61%
    07:00 +23°C° 0 mm 1 mps 755 mmHg 57%
    08:00 +24°C° 0 mm 1 mps 755 mmHg 56%
    09:00 +26°C° 0 mm 2 mps 755 mmHg 54%
    10:00 +27°C° 0 mm 2 mps 755 mmHg 52%
    11:00 +28°C° 0 mm 2 mps 755 mmHg 51%
    12:00 +29°C° 0 mm 3 mps 754 mmHg 49%
    13:00 +30°C° 0 mm 3 mps 754 mmHg 48%
    14:00 +30°C° 0 mm 3 mps 754 mmHg 50%
    15:00 +30°C° 0 mm 3 mps 754 mmHg 51%
    16:00 +30°C° 0 mm 3 mps 753 mmHg 52%
    17:00 +28°C° 0 mm 3 mps 753 mmHg 57%
    18:00 +27°C° 0 mm 2 mps 753 mmHg 63%
    19:00 +26°C° 0 mm 2 mps 753 mmHg 68%
    20:00 +25°C° 0 mm 2 mps 753 mmHg 69%
    21:00 +24°C° 0 mm 2 mps 753 mmHg 70%
    22:00 +23°C° 0 mm 2 mps 754 mmHg 71%
    23:00 +22°C° 0 mm 1 mps 753 mmHg 73%

    1 July, Monday

    Time Temperature Precipitation Wind Pressure Humidity
    00:00 +22°C° 0 mm 1 mps 753 mmHg 75%
    01:00 +21°C° 0 mm 1 mps 753 mmHg 77%
    02:00 +21°C° 0 mm 1 mps 753 mmHg 78%
    03:00 +20°C° 0 mm 1 mps 753 mmHg 78%
    04:00 +20°C° 0 mm 1 mps 753 mmHg 79%
    05:00 +22°C° 0 mm 1 mps 753 mmHg 74%
    06:00 +23°C° 0 mm 2 mps 753 mmHg 69%
    07:00 +24°C° 0 mm 2 mps 753 mmHg 65%
    08:00 +26°C° 0 mm 2 mps 753 mmHg 60%
    09:00 +27°C° 0 mm 3 mps 753 mmHg 55%
    10:00 +29°C° 0 mm 3 mps 753 mmHg 49%
    11:00 +30°C° 0 mm 3 mps 752 mmHg 47%
    12:00 +31°C° 0 mm 3 mps 752 mmHg 44%
    13:00 +33°C° 0 mm 3 mps 752 mmHg 41%
    14:00 +33°C° 0 mm 3 mps 751 mmHg 43%
    15:00 +33°C° 0 mm 3 mps 751 mmHg 44%
    16:00 +33°C° 0 mm 3 mps 751 mmHg 46%
    17:00 +30°C° 0 mm 3 mps 750 mmHg 51%
    18:00 +29°C° 0 mm 2 mps 750 mmHg 57%
    19:00 +27°C° 0 mm 2 mps 750 mmHg 62%
    20:00 +26°C° 0 mm 2 mps 750 mmHg 64%
    21:00 +25°C° 0 mm 1 mps 750 mmHg 67%
    22:00 +24°C° 0 mm 1 mps 750 mmHg 69%
    23:00 +24°C° 0 mm 1 mps 750 mmHg 70%

    2 July, Tuesday

    Time Temperature Precipitation Wind Pressure Humidity
    00:00 +24°C° 0 mm 1 mps 750 mmHg 70%
    01:00 +21°C° 0 mm 0 mps 750 mmHg 71%
    02:00 +21°C° 0 mm 0 mps 750 mmHg 72%
    03:00 +21°C° 0 mm 0 mps 750 mmHg 73%
    04:00 +21°C° 0 mm 0 mps 749 mmHg 74%
    05:00 +24°C° 0 mm 1 mps 750 mmHg 71%
    06:00 +25°C° 0 mm 1 mps 750 mmHg 68%
    07:00 +26°C° 0 mm 1 mps 750 mmHg 65%
    08:00 +28°C° 0 mm 1 mps 750 mmHg 62%
    09:00 +29°C° 0 mm 2 mps 750 mmHg 59%
    10:00 +31°C° 0 mm 2 mps 750 mmHg 56%
    11:00 +31°C° 0 mm 3 mps 750 mmHg 53%
    12:00 +33°C° 0 mm 3 mps 750 mmHg 51%
    13:00 +33°C° 0 mm 4 mps 750 mmHg 49%
    14:00 +33°C° 0 mm 4 mps 750 mmHg 50%
    15:00 +32°C° 0 mm 4 mps 749 mmHg 51%
    16:00 +32°C° 0 mm 5 mps 749 mmHg 52%
    17:00 +29°C° 0 mm 4 mps 749 mmHg 56%
    18:00 +28°C° 0 mm 4 mps 749 mmHg 60%
    19:00 +26°C° 0 mm 4 mps 749 mmHg 64%
    20:00 +25°C° 0 mm 3 mps 750 mmHg 64%
    21:00 +25°C° 0 mm 3 mps 750 mmHg 65%
    22:00 +24°C° 0 mm 3 mps 750 mmHg 66%
    23:00 +22°C° 0 mm 3 mps 750 mmHg 65%
    Show more